Location: ????????
(60.4333°N, 46.4710°E)
Time: 04:18:10
(UTC+00:00)

Cosmos 1605 Rocket - Pass Details

Date: 25 November 2020
Orbit: 945 x 1005 km, 82.9° (Epoch: 19 January)

Event Time Altitude Azimuth Distance (km) Brightness Sun altitude
Rises 15:41:01 0° 345° (NNW) 3,652 7.2 -25.4°
Reaches altitude 10° 15:43:38 10° 350° (N) 2,696 6.4 -25.7°
Enters shadow 15:48:19 44° 30° (NNE) 1,305 4.4 -26.3°
